Location: Boone Canyon
(38.3180°N, 119.2504°W)
Time: 17:29:19
(UTC+00:00)

USA 234 - Pass Details

Date: 18 September 2020
Orbit: 1102 x 1106 km, 123.0° (Epoch: 16 October)

Event Time Altitude Azimuth Distance (km) Brightness Sun altitude
Rises 12:44:22 0° 159° (SSE) 3,902 6.3 -12.0°
Reaches altitude 10° 12:47:03 10° 167° (SSE) 2,947 5.5 -11.5°
Maximum altitude 12:52:59 37° 233° (SW) 1,636 3.8 -10.3°
Drops below altitude 10° 12:58:58 10° 299° (WNW) 2,961 5.1 -9.2°
Sets 13:01:40 0° 308° (NW) 3,922 5.7 -8.7°
